Date,TemperatureHighF,TemperatureAvgF,TemperatureLowF,DewpointHighF,DewpointAvgF,DewpointLowF,HumidityHigh,HumidityAvg,HumidityLow,PressureMaxIn,PressureMinIn,WindSpeedMaxMPH,WindSpeedAvgMPH,GustSpeedMaxMPH,PrecipitationSumIn
2013-7-4,68,67,67,67,66,66,97,97,97,30.30,30.26,2,0,3,0.50
2013-7-5,81,73,71,74,62,57,81,69,54,30.25,30.17,1,0,1,0.01
2013-7-6,88,78,70,74,69,59,95,75,54,30.24,30.10,4,1,9,0.22
2013-7-7,87,77,71,75,71,68,96,83,58,30.18,30.07,7,1,9,0.02
2013-7-8,92,78,69,74,70,64,97,79,45,30.19,30.08,7,1,7,0.62
2013-7-9,93,78,67,75,70,66,98,79,46,30.16,30.04,8,1,9,0.15
2013-7-10,88,73,68,77,70,67,97,92,66,30.14,29.96,8,0,8,0.02
2013-7-11,83,75,68,74,71,67,97,88,68,29.98,29.87,6,0,6,0.00
2013-7-12,85,73,66,73,68,63,97,87,63,30.05,29.89,9,1,9,0.04
2013-7-13,80,71,66,72,68,65,97,90,73,30.14,30.03,9,1,9,0.20
2013-7-14,86,75,70,75,71,69,97,87,60,30.30,30.11,6,1,15,0.75
2013-7-15,91,77,67,73,69,66,98,79,48,30.34,30.26,8,0,8,0.01
2013-7-16,94,78,66,73,68,60,98,75,34,30.33,30.22,6,0,6,0.00
2013-7-17,92,75,68,75,70,67,97,84,51,30.27,30.14,14,1,14,0.36
2013-7-18,92,77,66,76,70,66,98,81,50,30.20,30.07,6,0,6,0.01
2013-7-19,93,80,68,75,71,67,98,78,47,30.12,29.98,7,0,7,0.00
2013-7-20,90,75,69,76,71,68,97,89,59,30.03,29.94,13,0,13,0.21
2013-7-21,89,73,67,76,70,66,98,92,60,30.02,29.94,17,0,17,0.46
2013-7-22,88,76,67,75,70,66,98,83,57,30.01,29.83,14,1,14,0.16
2013-7-23,90,77,67,71,68,64,98,77,47,29.88,29.77,15,2,15,0.00
2013-7-24,91,77,66,73,68,61,98,77,48,29.86,29.76,15,0,15,0.00
2013-7-25,88,75,65,71,67,64,98,79,51,30.04,29.86,7,1,7,0.00
2013-7-26,89,75,67,72,68,66,97,81,53,30.11,30.00,7,1,7,0.00
2013-7-27,81,72,68,73,69,66,97,90,73,30.03,29.91,13,1,13,2.00
2013-7-28,87,74,66,73,68,65,98,84,55,30.02,29.93,6,1,7,0.09
2013-7-29,88,73,60,68,64,59,98,76,41,30.19,30.02,6,0,6,0.00
2013-7-30,84,72,63,70,65,60,97,80,55,30.25,30.15,7,0,7,0.00
2013-7-31,72,70,68,70,68,66,97,95,89,30.18,30.00,7,0,7,0.28
2013-8-1,87,75,68,77,70,67,98,86,55,30.00,29.89,15,0,15,0.61
2013-8-2,89,75,65,72,68,63,98,79,51,30.04,29.94,7,0,7,0.00
2013-8-3,89,76,68,74,69,65,98,80,52,30.04,29.95,8,1,8,0.00
2013-8-4,87,74,65,71,65,59,95,77,42,30.05,29.95,4,0,7,0.00
2013-8-5,87,74,64,72,66,61,96,78,56,30.10,29.97,6,0,6,0.06
2013-8-6,84,73,68,73,69,66,97,87,68,30.06,29.97,6,0,6,0.01
2013-8-7,82,73,69,74,70,67,97,91,72,30.09,30.02,4,0,4,0.20
2013-8-8,88,77,69,76,72,68,98,85,61,30.07,29.99,8,0,8,0.01
2013-8-9,91,77,70,76,72,69,97,85,54,30.07,30.00,6,1,12,0.01
2013-8-10,92,76,70,75,71,68,98,88,48,30.14,30.05,11,1,11,0.31
2013-8-11,93,77,68,76,71,67,98,84,47,30.14,30.04,7,0,8,0.00
2013-8-12,92,78,68,75,71,67,97,82,54,30.08,29.96,12,1,12,0.00
2013-8-13,86,75,70,74,70,66,98,86,59,29.97,29.82,12,1,12,0.00
2013-8-14,83,74,65,69,65,61,94,76,51,30.10,29.89,7,0,7,0.00
2013-8-15,72,64,56,62,58,55,97,83,62,30.19,30.09,8,0,8,0.00
2013-8-16,77,64,56,62,59,56,98,83,55,30.21,30.12,7,1,7,0.00
2013-8-17,67,63,58,62,60,56,98,91,79,30.23,30.17,6,0,6,0.33
2013-8-18,79,69,63,71,66,62,98,91,71,30.25,30.15,5,0,5,0.17
2013-8-19,78,70,66,69,67,66,98,91,71,30.21,30.10,3,0,3,0.46
2013-8-20,84,71,63,72,68,63,98,89,66,30.22,30.13,5,0,5,0.00
2013-8-21,82,72,66,73,69,65,98,92,74,30.25,30.12,10,0,10,0.10
2013-8-22,91,77,66,73,69,66,98,79,48,30.17,30.01,8,1,8,0.00
2013-8-23,87,75,65,74,69,64,98,83,55,30.10,29.98,8,0,8,0.01
2013-8-24,82,70,59,66,60,56,97,73,44,30.33,30.10,11,1,11,0.00
2013-8-25,82,67,55,65,59,54,98,79,44,30.42,30.30,8,0,8,0.00
2013-8-26,87,70,55,69,62,54,98,79,44,30.36,30.13,6,0,6,0.00
2013-8-27,88,74,61,74,66,60,98,80,50,30.16,30.01,10,1,10,0.00
2013-8-28,91,77,66,75,70,64,97,79,51,30.04,29.92,7,0,7,0.00
2013-8-29,92,81,71,74,70,66,96,72,45,30.01,29.89,10,1,10,1.26
2013-8-30,87,76,71,73,70,68,97,84,62,30.06,29.94,6,0,6,0.01
2013-8-31,90,74,67,76,70,66,98,87,57,29.97,29.88,16,1,16,0.02
2013-9-1,90,73,67,76,69,66,98,90,58,29.93,29.78,25,1,25,0.33
2013-9-2,90,76,66,75,70,65,99,84,54,29.92,29.81,7,0,7,0.02
2013-9-3,87,75,66,69,66,63,98,79,46,30.00,29.82,9,1,9,0.00
2013-9-4,88,72,60,71,65,60,98,81,52,30.12,29.99,6,0,6,0.00
2013-9-5,88,72,62,69,64,55,98,78,38,30.14,30.06,6,0,6,0.00
2013-9-6,84,70,58,65,62,57,98,78,47,30.22,30.09,7,0,7,0.01
2013-9-7,86,70,57,68,63,57,98,81,50,30.16,30.00,8,1,8,0.00
2013-9-8,88,72,60,70,65,59,98,80,47,30.02,29.94,7,1,7,0.00
2013-9-9,86,74,64,72,67,63,98,83,54,30.17,30.02,8,0,8,0.00
2013-9-10,90,74,63,72,67,62,98,82,51,30.26,30.15,5,0,5,0.01
2013-9-11,90,74,64,73,68,63,98,84,54,30.23,30.09,5,0,5,0.00
2013-9-12,90,73,66,73,69,65,98,88,53,30.09,29.86,11,0,11,0.09
2013-9-13,81,70,57,66,59,51,96,70,39,29.94,29.81,18,2,18,0.00
2013-9-14,78,61,50,58,53,49,97,77,45,30.16,29.94,11,1,11,0.00
2013-9-15,80,64,51,65,58,50,98,83,54,30.26,30.14,8,0,8,0.00
2013-9-16,84,68,57,67,60,57,98,79,44,30.20,30.08,11,1,11,0.01
2013-9-17,71,65,58,61,56,54,94,75,57,30.33,30.20,10,1,10,0.00
2013-9-18,70,63,58,60,56,52,92,80,63,30.34,30.19,7,0,7,0.00
2013-9-19,81,69,61,67,63,59,94,82,59,30.22,30.10,5,0,5,0.00
2013-9-20,87,72,61,71,65,60,98,81,48,30.11,29.92,7,0,7,0.02
2013-9-21,72,67,63,69,65,62,98,94,82,29.94,29.72,6,0,11,0.85
2013-9-22,78,64,52,62,56,52,99,78,46,29.94,29.76,14,1,14,0.01
2013-9-23,76,62,53,61,56,52,98,82,56,30.10,29.94,10,0,10,0.00
2013-9-24,80,66,58,62,59,56,98,82,48,30.11,29.94,8,0,8,0.00
2013-9-25,64,61,58,62,60,58,98,95,92,29.97,29.90,5,0,5,0.22
2013-9-26,77,64,53,61,56,48,98,81,39,30.08,29.93,8,1,8,0.00
2013-9-27,78,62,49,60,54,48,99,79,48,30.21,30.08,8,0,8,0.00
2013-9-28,73,62,56,58,55,52,96,79,55,30.29,30.18,8,0,8,0.00
2013-9-29,76,62,54,59,55,52,96,79,53,30.22,30.06,6,0,6,0.00
2013-9-30,78,64,56,62,58,55,97,82,49,30.13,30.01,8,0,8,0.00
2013-10-1,83,65,53,64,58,53,98,81,43,30.18,30.05,4,0,9,0.00
2013-10-2,84,66,54,64,58,53,98,79,42,30.19,30.08,7,0,7,0.01
2013-10-3,85,68,57,66,61,57,98,81,43,30.16,30.07,8,0,8,0.00
2013-10-4,87,69,56,67,61,55,98,81,43,30.18,30.08,5,0,5,0.00
2013-10-5,88,70,57,67,62,57,98,80,45,30.16,30.04,7,0,7,0.01
2013-10-6,84,69,58,68,62,57,98,82,51,30.07,29.90,11,0,11,0.00
2013-10-7,74,64,52,67,60,50,98,87,66,30.05,29.82,11,1,11,1.49
2013-10-8,68,54,47,52,49,46,98,84,54,30.27,30.04,12,1,12,0.01
2013-10-9,73,55,42,49,45,38,98,75,29,30.30,30.16,10,1,0,0.00
2013-10-10,76,58,41,57,50,40,98,79,45,30.19,30.03,11,1,0,0.00
2013-10-11,78,64,52,58,54,51,97,74,40,30.05,29.94,12,1,0,0.01
2013-10-12,74,62,53,63,57,51,96,85,61,30.13,30.00,4,0,0,0.00
2013-10-13,76,66,61,65,62,60,97,87,65,30.24,30.13,7,0,0,0.03
2013-10-14,70,63,59,62,60,57,96,89,70,30.28,30.17,9,1,9,0.02
2013-10-15,72,61,53,59,56,52,97,84,58,30.25,30.08,11,1,3,0.00
2013-10-16,74,61,52,60,56,51,98,86,60,30.12,29.98,6,0,0,0.00
2013-10-17,72,63,58,65,61,57,98,93,77,30.00,29.85,10,0,0,0.12
2013-10-18,72,58,47,58,54,47,99,85,60,30.07,29.93,6,0,0,0.01
2013-10-19,64,57,48,59,55,47,98,93,79,30.00,29.86,5,0,0,0.02
2013-10-20,66,51,38,47,43,38,98,78,44,30.15,29.96,7,0,0,0.01
2013-10-21,70,51,37,53,46,36,98,86,51,30.21,30.04,8,0,0,0.00
2013-10-22,69,58,50,57,52,49,98,84,53,30.06,29.82,6,0,0,0.01
2013-10-23,61,50,37,52,39,29,98,68,38,30.08,29.77,29,4,0,0.00
2013-10-24,56,44,31,38,33,28,91,67,41,30.21,30.06,14,1,0,0.00
2013-10-25,50,38,28,36,29,25,95,73,41,30.44,30.21,14,1,14,0.00
2013-10-26,59,40,24,38,30,23,97,72,34,30.43,30.11,11,0,4,0.00
2013-10-27,70,54,39,49,44,37,94,70,43,30.17,30.06,9,1,9,0.00
2013-10-28,63,54,46,57,51,44,97,91,79,30.29,30.14,6,0,0,0.01
2013-10-29,66,55,48,53,51,47,98,88,61,30.32,30.27,4,0,0,0.00
2013-10-30,78,62,53,58,54,51,95,78,45,30.32,30.16,8,0,0,0.00
2013-10-31,68,60,52,62,56,51,98,86,62,30.20,29.88,12,0,0,0.00
2013-11-1,74,66,54,64,60,53,98,81,62,29.88,29.65,18,2,18,0.06
2013-11-2,66,54,41,54,42,34,98,65,36,30.02,29.74,22,2,13,0.00
2013-11-3,61,47,36,38,35,32,87,64,35,30.43,30.02,12,1,0,0.00
2013-11-4,58,42,29,36,31,27,97,69,33,30.59,30.43,9,1,0,0.00
2013-11-5,56,44,31,48,37,29,95,78,51,30.64,30.48,10,0,0,0.01
2013-11-6,65,53,46,54,50,45,98,90,66,30.49,30.18,7,0,0,0.04
2013-11-7,66,50,35,58,44,32,98,83,42,30.20,30.02,21,2,4,0.01
2013-11-8,57,43,30,32,25,15,87,55,21,30.37,30.19,13,1,13,0.00
2013-11-9,57,40,25,34,29,24,95,68,33,30.45,30.25,9,0,0,0.00
2013-11-10,68,51,32,39,32,25,94,53,22,30.29,30.17,22,4,0,0.00
2013-11-11,63,44,28,31,26,23,83,52,23,30.40,30.19,7,0,0,0.00
2013-11-12,60,43,29,38,26,13,78,53,31,30.51,30.10,23,5,23,0.00
2013-11-13,50,32,19,19,16,12,84,54,23,30.60,30.50,6,1,6,0.00
2013-11-14,61,38,20,26,20,16,89,56,18,30.54,30.37,7,0,4,0.00
2013-11-15,53,40,26,43,30,20,96,68,39,30.40,30.26,6,0,1,0.14
2013-11-16,56,50,44,52,48,43,97,94,85,30.34,30.24,5,0,0,0.01
2013-11-17,62,55,52,57,54,50,98,94,83,30.26,29.90,3,0,3,0.31
2013-11-18,69,59,45,59,43,27,99,59,25,30.05,29.85,20,3,3,0.00
2013-11-19,56,45,34,31,26,20,72,48,26,30.32,30.04,11,1,11,0.00
2013-11-20,51,40,30,31,29,26,88,66,42,30.53,30.31,10,1,9,0.00
2013-11-21,52,45,35,46,39,31,96,80,70,30.56,30.44,6,0,3,0.02
2013-11-22,62,54,47,57,52,46,97,93,82,30.47,30.16,6,1,0,0.04
2013-11-23,58,51,37,55,41,20,98,71,40,30.27,30.11,16,2,0,0.00
2013-11-24,40,31,23,23,9,2,60,41,22,30.58,30.27,25,4,25,0.00
2013-11-25,37,29,18,23,12,8,79,51,31,30.62,30.41,6,0,6,0.00
2013-11-26,40,35,30,40,33,22,98,93,66,30.41,29.70,9,0,0,2.17
2013-11-27,42,35,24,41,28,14,98,75,51,30.25,29.62,25,4,0,0.09
2013-11-28,46,30,18,23,19,15,88,64,33,30.54,30.25,9,1,8,0.00
2013-11-29,55,34,21,30,23,19,96,69,30,30.68,30.53,4,0,3,0.00
2013-11-30,46,32,22,26,23,20,94,72,42,30.73,30.45,10,1,0,0.00
2013-12-1,59,37,22,35,28,20,94,74,38,30.45,30.09,4,0,0,0.00
2013-12-2,58,42,26,39,33,25,97,74,44,30.09,29.86,7,1,0,0.00
2013-12-3,60,50,41,50,44,36,94,82,65,30.00,29.91,7,0,0,0.01
2013-12-4,57,54,51,54,52,50,98,95,90,30.10,29.98,4,0,0,0.00
2013-12-5,67,59,53,65,58,52,98,96,89,30.13,30.00,9,1,9,0.22
2013-12-6,74,69,59,65,63,58,96,82,73,30.04,29.93,24,5,24,0.55
2013-12-7,59,53,41,58,47,36,97,81,66,30.44,29.98,9,2,9,0.05
2013-12-8,41,36,33,38,34,32,96,94,87,30.46,30.31,8,1,8,0.13
2013-12-9,44,38,33,42,37,32,98,97,94,30.33,30.10,8,0,3,0.51
2013-12-10,51,41,29,48,34,19,98,78,47,30.36,29.96,26,3,26,0.20
2013-12-11,52,35,22,30,22,16,90,63,27,30.51,30.34,8,1,3,0.00
2013-12-12,44,35,25,23,14,0,69,44,16,30.47,30.35,20,3,20,0.00
2013-12-13,52,34,19,29,20,15,89,61,26,30.43,30.31,6,0,11,0.00
2013-12-14,37,36,34,36,33,28,97,88,72,30.34,29.85,7,1,7,0.76
2013-12-15,45,39,33,38,32,26,98,76,57,30.15,29.80,23,4,23,0.00
2013-12-16,60,43,31,32,29,26,83,60,31,30.22,30.11,9,1,9,0.00
2013-12-17,63,46,30,36,31,22,90,58,31,30.18,29.93,28,3,28,0.00
2013-12-18,51,39,28,22,16,7,69,41,17,30.34,30.11,22,4,22,0.00
2013-12-19,66,42,24,29,22,17,83,51,21,30.37,30.24,12,0,6,0.00
2013-12-20,65,47,32,45,35,26,86,65,33,30.28,30.15,8,1,8,0.00
2013-12-21,66,52,42,62,49,39,98,90,79,30.19,30.01,24,1,2,0.01
2013-12-22,68,62,57,64,60,57,98,93,85,30.08,29.97,22,2,22,2.23
2013-12-23,59,53,36,58,49,33,99,88,69,30.22,30.00,9,1,3,0.60
2013-12-24,40,33,23,34,24,16,94,72,45,30.51,30.21,21,2,0,0.00
2013-12-25,39,25,17,19,14,6,91,65,28,30.61,30.44,6,0,4,0.00
2013-12-26,54,33,18,27,21,15,92,65,31,30.45,30.31,11,1,4,0.00
2013-12-27,52,34,21,28,23,19,94,68,32,30.54,30.42,6,0,6,0.00
2013-12-28,49,36,22,40,30,20,96,81,47,30.49,30.21,5,0,2,0.23
2013-12-29,58,45,38,49,40,35,98,85,61,30.21,29.81,23,2,2,0.66
2013-12-30,52,45,41,40,37,35,89,73,61,30.17,30.00,11,1,11,0.00
2013-12-31,47,38,26,38,23,15,93,57,28,30.43,30.15,25,2,25,0.00
2014-1-1,49,35,24,30,26,19,90,71,43,30.43,30.21,9,0,9,0.00
2014-1-2,41,34,26,38,30,15,97,87,59,30.20,29.72,28,2,3,0.16